Wind_Speed
7 7 7 7 7 6 6 5 5 4 3 2 3 4 4 5 7 7 7 7 7 8 8 9 9 9 10 10 10 10 10 10 10 10 10 10 10 10 10 10 10 10 10
8 8 7 7 7 7 6 6 6 5 5 3 3 4 4 5 7 7 7 8 8 8 9 9 9 10 11 11 11 11 11 11 11 12 12 12 12 11 12 12 12 12 12
9 8 7 7 8 8 7 7 7 7 6 6 4 4 5 6 7 7 8 9 9 9 9 10 10 10 10 10 11 12 11 11 12 12 12 13 13 13 13 13 13 14 15
11 10 9 9 9 9 8 8 8 7 7 7 7 6 6 6 7 8 9 10 10 10 10 10 10 10 11 11 12 11 11 12 12 12 13 13 14 14 14 14 15 15 16
12 11 10 10 10 9 9 9 9 8 7 8 8 7 7 7 7 8 8 9 9 10 10 11 11 11 12 12 12 12 13 13 12 13 14 14 15 15 15 15 15 15 15
14 13 12 11 11 11 10 10 9 8 8 8 9 9 8 9 8 8 9 9 10 11 11 11 12 13 13 13 13 14 14 14 14 15 15 15 15 16 16 16 16 17 17
15 15 13 12 11 11 11 11 10 9 9 9 10 10 10 10 9 9 10 11 12 13 13 13 13 14 14 15 15 14 15 16 17 18 17 17 17 17 17 18 18 18 19
14 15 15 14 12 12 12 12 11 11 10 10 10 11 11 11 11 11 12 13 13 14 14 15 15 15 16 16 16 17 17 18 18 19 19 19 19 20 20 20 20 20 20
14 14 14 14 14 13 13 12 12 12 12 13 13 12 12 12 13 14 14 14 14 15 16 16 17 17 17 18 18 18 19 19 20 20 20 21 21 22 22 22 23 23 22
14 15 15 14 14 14 15 15 14 14 15 15 15 14 14 14 15 16 17 17 16 16 17 17 18 19 19 20 21 21 21 21 21 21 23 23 23 24 25 25 25 25 25
14 14 15 15 15 16 16 16 16 17 17 17 17 17 17 17 18 18 19 19 19 19 19 19 20 20 20 22 23 23 23 22 22 23 24 24 25 26 26 26 27 27 27
15 15 15 16 16 17 17 18 18 19 19 19 19 19 20 20 20 20 20 21 21 21 21 21 22 22 23 24 24 24 23 24 24 24 25 25 26 27 28 29 28 28 28
17 16 16 17 18 18 19 19 20 20 21 21 21 21 21 22 22 22 22 23 23 24 24 25 25 25 26 26 26 26 25 26 27 27 27 27 28 28 29 30 30 29 28
17 17 17 18 19 20 20 20 21 21 22 22 23 23 23 24 24 25 25 26 26 26 26 26 26 27 27 26 27 27 27 27 28 29 28 28 28 28 29 29 29 29 30
19 19 19 20 20 21 22 22 23 23 23 24 25 25 25 26 26 26 27 27 27 27 27 27 28 28 28 28 27 27 27 27 27 28 29 28 28 28 29 29 29 30 31
22 22 22 23 23 24 24 24 24 25 25 25 25 26 26 27 27 28 28 28 28 28 28 28 28 28 28 28 28 28 29 29 29 30 30 30 30 30 31 30 31 31 32
24 25 25 26 26 27 27 26 27 27 27 27 27 27 28 28 28 29 29 30 30 30 30 29 28 28 28 28 28 30 30 30 30 30 31 32 32 31 32 32 33 33 33
26 27 27 28 28 29 29 28 28 29 29 29 28 29 29 30 31 31 31 31 31 31 31 30 30 30 30 30 31 31 31 31 31 32 32 32 32 32 33 34 34 34 35
28 28 28 29 29 30 30 30 30 30 30 30 30 30 31 32 32 32 32 32 32 32 32 32 32 32 31 31 32 32 32 32 32 32 32 33 33 33 33 34 35 35 35
29 29 30 30 30 30 31 32 32 31 32 32 32 33 33 33 33 33 33 33 33 33 33 33 34 33 32 33 33 34 33 33 32 33 34 34 34 34 35 36 35 36 36
30 30 31 31 31 31 32 33 33 33 34 34 34 34 34 34 34 34 33 33 33 34 34 34 34 34 33 33 34 35 35 35 34 34 34 35 36 36 35 35 36 36 36
31 31 32 32 33 33 34 34 34 34 34 34 34 34 34 34 34 34 34 34 34 34 34 34 34 34 33 33 34 34 35 34 34 34 35 35 35 36 35 36 36 36 36
32 32 33 33 34 35 35 35 34 35 34 33 33 33 33 33 33 33 33 33 33 33 33 33 33 33 33 34 34 35 35 34 35 35 36 36 37 37 36 36 37 36 36
32 33 33 33 34 35 35 35 35 35 35 34 33 33 33 32 32 32 32 33 33 33 33 32 32 32 33 34 34 34 34 34 35 36 37 37 37 37 37 37 37 37 38
32 32 33 33 33 34 34 35 35 35 35 34 33 33 32 32 32 32 31 32 32 32 32 32 32 33 33 33 34 34 35 35 35 35 35 35 35 36 36 37 37 37 37
32 32 33 34 33 33 33 33 33 34 33 33 33 33 32 31 31 31 31 31 31 31 32 32 32 32 33 33 34 35 35 35 35 35 35 35 35 35 36 36 36 37 37
Wind_Direction
342 343 342 343 347 348 345 340 331 324 308 268 230 227 222 222 228 229 234 240 241 237 236 235 236 238 240 244 248 250 253 253 252 254 255 254 252 250 255 260 260 264 267
320 326 328 328 331 334 333 327 322 316 300 285 247 229 228 234 240 245 248 250 252 246 241 239 244 245 248 251 253 255 255 257 257 256 255 254 255 253 259 262 264 268 269
302 308 314 313 314 319 322 319 314 305 292 281 260 250 240 237 242 248 254 258 257 249 246 247 252 253 255 255 258 261 257 259 259 258 257 256 253 257 261 264 268 271 271
293 294 298 301 302 305 307 309 308 300 289 277 270 257 257 255 256 260 264 266 261 258 256 256 260 264 259 259 260 259 261 262 262 260 261 260 258 259 264 269 269 271 272
286 285 287 288 291 292 298 303 303 294 287 280 270 259 262 261 267 269 271 267 263 264 261 262 266 264 264 264 261 261 264 266 267 265 263 261 260 261 266 270 272 275 277
277 277 278 281 286 289 292 298 299 288 291 289 284 275 267 268 270 273 275 275 275 273 271 270 269 265 266 267 267 264 264 266 267 265 264 264 264 265 266 269 273 276 278
272 270 270 275 281 284 287 290 295 290 292 292 285 280 274 272 273 276 277 279 280 277 275 274 271 269 267 267 268 267 268 271 266 263 263 265 265 265 267 270 272 274 277
270 266 263 266 273 279 283 283 287 288 288 290 287 282 280 276 277 281 281 281 280 279 277 275 272 273 272 270 270 271 272 273 271 267 265 266 266 267 269 272 274 276 277
269 262 260 264 268 271 275 279 283 287 287 289 287 289 284 285 285 282 283 283 281 280 279 279 274 272 273 271 269 270 271 271 270 269 268 267 267 269 271 274 276 276 276
268 262 260 263 267 270 272 275 282 286 285 285 284 283 285 288 290 287 283 282 283 281 279 279 277 272 271 272 273 271 270 269 268 268 268 268 269 269 269 271 274 275 274
265 264 262 263 266 269 271 274 278 281 282 283 282 281 282 286 288 287 284 284 282 281 280 279 278 277 275 272 273 274 273 272 270 269 270 270 270 269 269 270 273 275 276
262 262 260 261 265 268 270 273 277 279 279 279 279 281 281 283 284 285 284 283 282 282 281 280 278 279 279 278 277 275 274 275 272 272 273 274 274 271 270 271 273 274 276
262 262 260 260 263 265 269 273 277 278 276 277 280 280 281 281 282 284 285 285 284 284 281 279 279 279 279 279 278 275 274 275 273 272 273 275 276 275 274 274 274 276 278
264 262 261 262 262 265 268 273 275 276 276 277 278 279 281 281 282 283 283 285 286 286 284 282 281 281 281 279 278 273 273 272 271 271 274 276 279 277 275 276 275 276 277
263 262 263 263 264 266 269 272 274 275 276 277 278 280 281 281 282 283 283 284 285 285 284 283 283 282 280 279 277 273 272 272 272 272 273 275 277 277 277 277 276 277 278
265 264 264 263 265 267 269 272 274 276 277 278 278 279 281 282 282 283 283 284 285 285 285 284 283 282 280 279 276 274 272 272 272 273 273 274 275 276 276 276 277 278 278
265 265 265 266 266 267 270 272 273 275 276 277 278 279 280 281 283 283 283 284 284 284 284 283 282 279 277 276 276 275 274 272 272 273 273 274 275 276 276 276 276 278 279
266 266 266 268 268 269 271 272 273 274 275 277 278 277 278 280 282 283 283 283 283 282 281 281 280 278 277 276 276 275 273 273 272 273 274 275 276 278 278 277 277 278 279
266 266 267 268 269 271 272 273 274 275 276 277 277 277 278 280 281 282 282 283 282 280 279 280 279 279 278 278 277 274 272 272 273 274 274 274 275 278 278 278 279 279 279
266 267 268 268 269 270 271 272 274 275 275 276 277 277 278 279 280 281 281 282 281 279 279 280 281 279 278 277 276 274 273 273 274 274 275 274 274 276 278 279 280 281 281
266 267 267 268 269 270 271 272 274 275 275 276 277 278 279 280 280 280 281 281 280 280 280 281 281 279 279 277 276 275 273 273 273 274 274 274 274 275 276 278 280 281 280
266 267 268 269 270 271 271 273 274 275 276 277 278 279 279 280 280 279 279 279 279 279 280 281 281 279 279 278 277 275 274 272 272 273 274 275 275 275 275 276 278 279 279
267 268 269 270 271 271 271 271 272 274 276 277 278 278 278 279 279 278 279 280 280 279 279 279 280 281 279 278 277 275 273 272 273 275 275 275 275 275 275 276 277 277 279
267 268 270 272 273 273 273 273 273 274 276 277 277 277 277 277 277 277 279 281 281 279 278 278 279 280 281 281 279 275 273 275 277 276 275 275 275 275 275 276 277 278 279
267 269 270 272 274 275 275 275 275 276 276 277 278 277 276 277 278 279 280 280 281 281 280 280 280 279 280 281 279 277 277 278 277 277 277 276 275 276 277 277 278 279 280
268 270 271 272 274 275 275 277 278 278 278 278 278 277 277 276 278 279 279 278 279 278 278 279 279 279 281 282 281 279 278 278 277 277 277 278 278 277 277 278 278 280 281
Height
5910 5908 5907 5905 5904 5902 5901 5900 5898 5898 5897 5897 5896 5896 5896 5897 5897 5897 5898 5898 5898 5898 5899 5899 5900 5900 5901 5901 5902 5902 5902 5902 5902 5903 5903 5903 5903 5904 5904 5904 5904 5904 5904
5909 5908 5906 5905 5904 5902 5901 5899 5898 5897 5897 5896 5896 5896 5896 5896 5896 5896 5896 5896 5897 5897 5897 5898 5898 5899 5899 5899 5900 5900 5900 5900 5901 5901 5901 5901 5902 5901 5902 5902 5902 5902 5902
5908 5907 5906 5904 5903 5902 5900 5899 5898 5897 5896 5895 5895 5895 5895 5895 5896 5895 5895 5895 5895 5895 5895 5896 5897 5897 5897 5898 5898 5898 5898 5898 5898 5898 5899 5899 5899 5899 5899 5899 5899 5899 5899
5906 5905 5904 5903 5902 5901 5899 5898 5896 5895 5894 5894 5894 5894 5894 5894 5894 5894 5894 5894 5893 5893 5894 5894 5895 5895 5895 5896 5896 5896 5896 5896 5896 5896 5896 5897 5897 5897 5897 5897 5896 5896 5896
5904 5903 5902 5901 5900 5899 5898 5896 5894 5893 5893 5893 5893 5892 5893 5893 5892 5892 5892 5892 5892 5892 5892 5892 5893 5893 5893 5893 5893 5893 5894 5894 5893 5893 5894 5894 5894 5894 5894 5894 5893 5893 5892
5901 5901 5900 5899 5898 5897 5896 5895 5893 5892 5891 5891 5891 5891 5891 5891 5891 5891 5890 5890 5890 5890 5890 5890 5890 5890 5890 5890 5891 5891 5891 5891 5891 5890 5891 5891 5891 5891 5891 5891 5890 5889 5889
5898 5898 5897 5897 5896 5895 5894 5893 5892 5892 5891 5890 5890 5890 5889 5889 5889 5888 5888 5888 5887 5887 5887 5887 5887 5887 5887 5887 5887 5887 5887 5887 5887 5887 5887 5887 5887 5887 5887 5887 5886 5886 5885
5894 5894 5894 5894 5894 5893 5892 5892 5891 5890 5890 5889 5888 5888 5887 5887 5887 5886 5886 5885 5885 5884 5884 5883 5883 5883 5883 5883 5883 5883 5883 5883 5883 5882 5883 5883 5883 5883 5883 5882 5882 5881 5881
5891 5891 5891 5891 5891 5890 5890 5889 5889 5888 5888 5887 5887 5886 5885 5885 5884 5884 5883 5882 5881 5881 5880 5880 5880 5879 5879 5879 5879 5879 5879 5878 5878 5878 5878 5878 5878 5878 5878 5877 5877 5876 5876
5887 5887 5887 5887 5887 5887 5887 5886 5886 5886 5885 5884 5884 5883 5883 5882 5881 5880 5879 5879 5878 5877 5877 5876 5875 5875 5874 5874 5874 5874 5873 5873 5873 5872 5872 5873 5873 5872 5872 5871 5871 5870 5869
5883 5883 5883 5884 5884 5883 5883 5883 5883 5883 5882 5881 5880 5880 5879 5879 5878 5877 5876 5875 5874 5873 5872 5872 5871 5870 5870 5869 5868 5868 5867 5867 5866 5866 5866 5866 5866 5866 5865 5865 5864 5864 5863
5879 5879 5879 5879 5879 5879 5879 5879 5879 5878 5878 5877 5876 5876 5875 5874 5874 5873 5872 5871 5870 5868 5867 5867 5866 5865 5864 5863 5863 5862 5861 5860 5860 5860 5860 5860 5859 5859 5858 5858 5857 5857 5856
5875 5875 5875 5875 5875 5875 5875 5875 5874 5874 5873 5872 5872 5871 5870 5869 5869 5868 5866 5865 5864 5863 5862 5861 5860 5859 5858 5857 5857 5856 5855 5854 5853 5853 5853 5852 5852 5851 5851 5850 5850 5850 5849
5870 5870 5871 5871 5871 5870 5870 5870 5869 5868 5868 5867 5866 5865 5864 5864 5862 5861 5860 5859 5858 5857 5855 5854 5853 5852 5851 5850 5849 5848 5848 5847 5846 5846 5846 5845 5844 5843 5843 5842 5842 5841 5841
5865 5865 5865 5865 5865 5865 5865 5864 5863 5863 5862 5861 5860 5859 5858 5857 5856 5855 5853 5852 5851 5849 5848 5847 5845 5844 5843 5842 5841 5840 5840 5839 5839 5838 5838 5838 5837 5836 5835 5835 5834 5833 5832
5859 5859 5859 5859 5859 5859 5858 5857 5857 5856 5855 5854 5853 5852 5851 5849 5848 5847 5846 5844 5843 5841 5840 5839 5837 5836 5835 5834 5833 5832 5832 5832 5831 5831 5830 5829 5829 5828 5827 5827 5826 5825 5824
5852 5852 5852 5852 5852 5852 5851 5850 5850 5849 5848 5847 5846 5845 5843 5842 5841 5839 5838 5836 5834 5833 5831 5830 5829 5828 5827 5826 5825 5824 5823 5823 5822 5822 5821 5821 5820 5819 5818 5817 5816 5816 5814
5844 5844 5844 5844 5844 5844 5843 5843 5842 5841 5840 5839 5838 5837 5836 5834 5833 5831 5829 5827 5826 5824 5822 5821 5820 5819 5818 5817 5816 5814 5813 5813 5813 5813 5812 5812 5811 5810 5809 5808 5807 5806 5805
5836 5836 5836 5836 5836 5836 5835 5834 5833 5833 5832 5831 5830 5829 5827 5826 5824 5822 5820 5818 5816 5815 5813 5812 5810 5809 5809 5808 5806 5805 5804 5804 5804 5804 5803 5802 5802 5801 5800 5798 5797 5796 5795
5828 5828 5828 5828 5828 5827 5826 5825 5825 5824 5823 5822 5821 5819 5818 5817 5815 5813 5811 5809 5807 5805 5804 5802 5801 5799 5799 5798 5797 5795 5794 5794 5794 5794 5793 5792 5792 5791 5790 5788 5787 5786 5785
5819 5819 5819 5819 5819 5818 5817 5816 5815 5815 5813 5812 5811 5810 5808 5807 5805 5803 5801 5800 5798 5796 5794 5792 5790 5789 5788 5786 5785 5784 5783 5783 5783 5783 5782 5781 5781 5780 5779 5778 5777 5776 5775
5809 5810 5810 5809 5809 5809 5808 5807 5806 5805 5804 5802 5801 5799 5798 5796 5795 5793 5791 5790 5788 5786 5784 5782 5780 5778 5777 5776 5775 5774 5773 5772 5772 5772 5772 5771 5770 5769 5769 5768 5767 5765 5764
5800 5800 5800 5800 5799 5799 5798 5797 5796 5794 5793 5792 5791 5789 5788 5786 5784 5783 5781 5780 5778 5776 5774 5772 5771 5769 5767 5766 5765 5764 5763 5762 5761 5761 5761 5760 5759 5758 5758 5757 5756 5755 5753
5790 5790 5790 5790 5789 5788 5787 5786 5785 5784 5783 5781 5780 5779 5778 5776 5774 5772 5771 5769 5768 5766 5764 5763 5761 5759 5758 5756 5755 5753 5752 5752 5751 5750 5750 5749 5748 5747 5746 5746 5745 5743 5741
5780 5780 5780 5780 5779 5778 5777 5776 5775 5774 5772 5770 5769 5768 5767 5766 5764 5763 5761 5760 5758 5757 5755 5753 5752 5750 5748 5747 5745 5743 5742 5741 5740 5739 5739 5738 5737 5736 5735 5735 5734 5732 5730
5770 5770 5770 5769 5768 5768 5767 5766 5765 5764 5762 5761 5759 5758 5757 5756 5755 5753 5752 5750 5749 5747 5746 5744 5742 5741 5739 5737 5735 5733 5732 5731 5730 5729 5728 5728 5727 5726 5724 5723 5722 5721 5719